Weather History for KSBS - June, 2012

Change the Weather History Date:

Tuesday, June 19, 2012

  Actual Average Record
Temperature  
Mean Temperature 66 °F -  
Max Temperature 86 °F 75 °F 91 °F (1936)
Min Temperature 45 °F 35 °F 20 °F (1939)
Growing Degree Days 16 (Base 50)    
Moisture  
Dew Point 16 °F    
Average Humidity 18    
Maximum Humidity 46    
Minimum Humidity 4    
Precipitation  
Precipitation 0.00 in - - ()
Sea Level Pressure  
Sea Level Pressure 29.90 in    
Wind  
Wind Speed 5 mph (WSW)    
Max Wind Speed 21 mph    
Max Gust Speed 31 mph    
Visibility 10 miles    
Events      
Averages and records for this station are not official NWS values.
T = Trace of Precipitation, MM = Missing Value Source: NWS Daily Summary

Daily Weather History Graph

Daily Weather History Graph

Search for Another Location

Airport or City:

Trip Planner

Search our weather history database for the weather conditions in past years. The results will help you decide how hot, cold, wet, or windy it might be!

Date:

Astronomy

Jun. 19, 2012 Rise Set
Actual Time 5:36 AM MDT 8:41 PM MDT
Civil Twilight 5:03 AM MDT 9:14 PM MDT
Nautical Twilight 4:21 AM MDT 9:56 PM MDT
Astronomical Twilight 3:31 AM MDT 10:46 PM MDT
Moon 5:44 AM MDT (6/19) 8:47 PM MDT (6/19)
Length of Visible Light 16h 10m
Length of Day
15h 04m
New Moon, 0% of the Moon is Illuminated
Jun 19
New Moon
Jun 26
First Quarter
Jul 3
Full
Jul 10
Last Quarter
Jul 18
New

Hourly Weather History & Observations

Time (MDT) Temp. Windchill Dew Point Humidity Pressure Visibility Wind Dir Wind Speed Gust Speed Precip Events Conditions
12:08 AM 59.9 °F - 16.5 °F 18% 29.88 in 10.0 mi East 5.8 mph - N/A   Clear
12:28 AM 59.9 °F - 16.9 °F 19% 29.87 in 10.0 mi ESE 6.9 mph - N/A   Clear
12:48 AM 58.6 °F - 17.4 °F 20% 29.88 in 10.0 mi Calm Calm - N/A   Clear
1:08 AM 58.1 °F - 16.7 °F 20% 29.88 in 10.0 mi Calm Calm - N/A   Clear
1:28 AM 57.9 °F - 18.5 °F 22% 29.88 in 10.0 mi Calm Calm - N/A   Clear
1:48 AM 56.8 °F - 18.1 °F 22% 29.88 in 10.0 mi Calm Calm - N/A   Clear
2:08 AM 55.0 °F - 18.3 °F 24% 29.88 in 10.0 mi Calm Calm - N/A   Clear
2:28 AM 52.9 °F - 19.9 °F 28% 29.87 in 10.0 mi NNW 4.6 mph - N/A   Clear
2:48 AM 50.0 °F - 20.5 °F 31% 29.87 in 10.0 mi Calm Calm - N/A   Clear
3:08 AM 49.8 °F - 21.0 °F 32% 29.87 in 10.0 mi NW 3.5 mph - N/A   Clear
3:28 AM 49.3 °F - 21.4 °F 33% 29.88 in 10.0 mi Calm Calm - N/A   Clear
3:48 AM 48.7 °F - 21.2 °F 34% 29.88 in 10.0 mi Calm Calm - N/A   Clear
4:08 AM 49.3 °F - 20.3 °F 32% 29.87 in 10.0 mi Calm Calm - N/A   Clear
4:28 AM 47.8 °F - 21.7 °F 36% 29.88 in 10.0 mi WNW 3.5 mph - N/A   Clear
5:08 AM 46.0 °F 44.8 °F 23.4 °F 41% 29.90 in 10.0 mi NW 3.5 mph - N/A   Clear
5:28 AM 45.5 °F - 23.7 °F 42% 29.91 in 10.0 mi Calm Calm - N/A   Clear
5:48 AM 46.8 °F - 22.8 °F 39% 29.91 in 10.0 mi Calm Calm - N/A   Clear
6:08 AM 45.7 °F 44.4 °F 23.4 °F 41% 29.92 in 10.0 mi West 3.5 mph - N/A   Clear
6:48 AM 47.5 °F - 26.2 °F 44% 29.93 in 10.0 mi ESE 3.5 mph - N/A   Clear
7:08 AM 48.0 °F - 27.9 °F 46% 29.94 in 10.0 mi Calm Calm - N/A   Clear
8:08 AM 55.0 °F - 25.3 °F 32% 29.96 in 10.0 mi Calm Calm - N/A   Clear
8:28 AM 60.1 °F - 25.9 °F 27% 29.96 in 10.0 mi Calm Calm - N/A   Clear
8:48 AM 63.5 °F - 23.9 °F 22% 29.96 in 10.0 mi ENE 3.5 mph - N/A   Clear
9:08 AM 64.2 °F - 25.2 °F 23% 29.96 in 10.0 mi South 3.5 mph - N/A   Clear
9:28 AM 64.9 °F - 26.4 °F 23% 29.96 in 10.0 mi Calm Calm - N/A   Clear
9:48 AM 66.2 °F - 26.4 °F 22% 29.96 in 10.0 mi South 5.8 mph - N/A   Clear
10:08 AM 67.5 °F - 26.4 °F 21% 29.95 in 10.0 mi Calm Calm - N/A   Clear
10:28 AM 70.3 °F - 26.4 °F 19% 29.95 in 10.0 mi South 3.5 mph - N/A   Clear
10:48 AM 71.8 °F - 23.9 °F 17% 29.94 in 10.0 mi South 6.9 mph - N/A   Clear
11:08 AM 73.0 °F - 22.8 °F 15% 29.94 in 10.0 mi SW 9.2 mph - N/A   Clear
11:28 AM 74.8 °F - 18.1 °F 12% 29.94 in 10.0 mi NNW 4.6 mph - N/A   Clear
11:48 AM 76.5 °F - 16.3 °F 10% 29.94 in 10.0 mi WSW 9.2 mph - N/A   Clear
12:08 PM 76.1 °F - 16.2 °F 10% 29.94 in 10.0 mi SSW 5.8 mph - N/A   Clear
12:28 PM 76.3 °F - 15.3 °F 10% 29.93 in 10.0 mi SSW 8.1 mph 16.1 mph N/A   Clear
12:48 PM 78.8 °F - 15.6 °F 9% 29.93 in 10.0 mi West 5.8 mph - N/A   Clear
1:08 PM 79.5 °F - 15.3 °F 9% 29.90 in 10.0 mi West 11.5 mph 20.7 mph N/A   Clear
1:28 PM 80.2 °F - 13.6 °F 8% 29.91 in 10.0 mi West 6.9 mph 16.1 mph N/A   Clear
2:08 PM 81.1 °F - 12.9 °F 8% 29.88 in 10.0 mi West 13.8 mph 20.7 mph N/A   Clear
2:28 PM 82.0 °F - 13.3 °F 8% 29.88 in 10.0 mi West 11.5 mph 21.9 mph N/A   Clear
2:48 PM 82.4 °F - 12.6 °F 7% 29.88 in 10.0 mi West 9.2 mph 19.6 mph N/A   Clear
3:08 PM 82.8 °F - 12.0 °F 7% 29.87 in 10.0 mi Calm Calm - N/A   Clear
3:28 PM 84.0 °F - 12.0 °F 7% 29.87 in 10.0 mi Calm Calm - N/A   Clear
4:08 PM 85.5 °F - 9.9 °F 6% 29.85 in 10.0 mi WSW 15.0 mph 18.4 mph N/A   Clear
4:28 PM 85.1 °F - 8.8 °F 6% 29.84 in 10.0 mi WNW 5.8 mph - N/A   Clear
4:48 PM 86.2 °F - 8.1 °F 5% 29.84 in 10.0 mi West 11.5 mph 17.3 mph N/A   Clear
5:08 PM 85.6 °F - 6.6 °F 5% 29.84 in 10.0 mi South 9.2 mph 20.7 mph N/A   Clear
5:28 PM 85.3 °F - 3.2 °F 4% 29.84 in 10.0 mi SW 13.8 mph 21.9 mph N/A   Clear
5:48 PM 83.7 °F - 5.4 °F 5% 29.83 in 10.0 mi SW 12.7 mph 18.4 mph N/A   Clear
6:08 PM 81.3 °F - 4.5 °F 5% 29.84 in 10.0 mi SSW 10.4 mph 21.9 mph N/A   Clear
6:28 PM 82.9 °F - 2.7 °F 5% 29.84 in 10.0 mi WSW 15.0 mph 24.2 mph N/A   Clear
6:48 PM 83.5 °F - 5.9 °F 5% 29.84 in 10.0 mi WSW 10.4 mph 21.9 mph N/A   Clear
7:08 PM 81.5 °F - 9.9 °F 7% 29.85 in 10.0 mi West 12.7 mph 20.7 mph N/A   Clear
7:28 PM 79.9 °F - 12.4 °F 8% 29.86 in 10.0 mi West 11.5 mph - N/A   Clear
7:48 PM 77.4 °F - 10.6 °F 8% 29.86 in 10.0 mi West 10.4 mph 21.9 mph N/A   Clear
8:08 PM 75.4 °F - 10.4 °F 8% 29.87 in 10.0 mi West 9.2 mph - N/A   Clear
8:28 PM 72.5 °F - 10.4 °F 9% 29.88 in 10.0 mi West 6.9 mph - N/A   Clear
9:08 PM 68.9 °F - 8.6 °F 10% 29.91 in 10.0 mi NW 20.7 mph 25.3 mph N/A   Clear
9:28 PM 67.1 °F - 5.9 °F 9% 29.93 in 10.0 mi NW 18.4 mph 25.3 mph N/A   Clear
9:48 PM 66.2 °F - 5.4 °F 9% 29.95 in 10.0 mi NW 12.7 mph 25.3 mph N/A   Clear
10:08 PM 65.3 °F - 3.7 °F 9% 29.96 in 10.0 mi NW 19.6 mph 31.1 mph N/A   Clear
10:28 PM 62.8 °F - 4.6 °F 10% 29.97 in 10.0 mi WNW 9.2 mph 19.6 mph N/A   Clear
11:08 PM 59.9 °F - 3.0 °F 10% 29.99 in 10.0 mi West 9.2 mph - N/A   Clear